Weather in Morso

Denmark     56°49′07″N   8°45′34″E
temp.,
°C
wind,
m/s
gust,
m/s
humid.,
%
clouds,
%
prec.,
mm/h
press.,
hPa
HPBL,
m
24 september, fri
fri2423:00+12nw14217919 0.0 1004852
02:00+11nw12187210 0.0 1005771
05:00+11wnw11167112 0.0 1006814
08:00+12wnw8137086 0.0 1007799
11:00+14wsw8147599 0.0 1006905
14:00+16wsw101378100 0.1 10051031
17:00+15wsw9138563 0.1 1004737
20:00+14w81286100 0.1 1004624
25 september, sat
sat2523:00+14w9138578 0.0 1006825
02:00+14w9147033 0.1 1007995
05:00+12wnw9137845 0.0 1008850
08:00+12wnw812715 0.0 1010748
11:00+14wnw911645 0.0 1012980
14:00+15wnw89635 0.0 1013933
17:00+14w6867100 0.0 1014782
20:00+12w4777100 0.0 1015236
26 september, sun
sun2623:00+11wsw3479100 0.0 1016115
02:00+11sw33805 0.0 101771
05:00+10s34876 0.0 101769
08:00+10sse349132 0.0 1017111
11:00+14sse4575100 0.0 1018399
14:00+18sse356872 0.0 1017748
17:00+18se2470100 0.0 1016400
20:00+16ese4882100 0.0 1016242
27 september, mon
mon2723:00+15se61283100 0.0 1016355
02:00+15se6138459 0.0 1015342
05:00+14se613905 0.0 1014317
08:00+14se61294100 0.0 1014353
11:00+16sse6986100 0.1 1013501
14:00+18s6982100 0.8 1014659
17:00+17ssw71084100 1.1 1014770
20:00+14wsw6992100 2.5 1016584
28 september, tue
tue2823:00+13w69835 0.1 1019505
02:00+11w478016 0.1 1022196
05:00+11wsw338038 0.0 1023108
08:00+11ssw338355 0.0 102472
11:00+14s3471100 0.0 1025397
14:00+15s346091 0.0 1024733
17:00+16sse345795 0.0 10241105
20:00+12sse3676100 0.1 1023126